Location: Poughquag
(41.6090°N, 73.6820°W)
Time: 22:17:28
(UTC-05:00)

N. Korean satellite - Pass Details

Date: 27 January 2021
Orbit: 451 x 503 km, 97.2° (Epoch: 24 February)

Event Time Altitude Azimuth Distance (km) Brightness Sun altitude
Rises 05:07:10 0° 16° (NNE) 2,495 10.3 -23.2°
Reaches altitude 10° 05:09:16 10° 22° (NNE) 1,608 9.4 -22.8°
Maximum altitude 05:12:38 53° 100° (E) 569 7.2 -22.2°
Drops below altitude 10° 05:15:57 10° 178° (S) 1,580 9.2 -21.6°
Sets 05:18:00 0° 183° (S) 2,444 10.2 -21.2°
